Time,TemperatureF,DewpointF,PressureIn,WindDirection,WindDirectionDegrees,WindSpeedMPH,WindSpeedGustMPH,Humidity,HourlyPrecipIn,Conditions,Clouds,dailyrainin,SoftwareType,DateUTC
2013-06-03 00:01:00,46.8,40.6,30.00,NW,325,1.0,5.0,79,0.00,,OVC025,0.00,VWS V13.01,2013-06-03 04:01:00,
2013-06-03 00:02:00,46.8,40.6,30.00,NW,319,4.0,5.0,79,0.00,,FEW027,0.00,VWS V13.01,2013-06-03 04:02:00,
2013-06-03 00:07:00,46.5,40.0,30.00,North,350,1.0,8.0,78,0.00,,FEW027,0.00,VWS V13.01,2013-06-03 04:07:00,
2013-06-03 00:12:00,46.2,40.1,30.00,NNW,342,2.0,5.0,79,0.00,,FEW027,0.00,VWS V13.01,2013-06-03 04:12:00,
2013-06-03 00:17:00,45.8,39.7,30.00,North,355,2.0,4.0,79,0.00,,FEW027,0.00,VWS V13.01,2013-06-03 04:17:00,
2013-06-03 00:22:00,45.5,39.4,30.01,NW,310,0.0,4.0,79,0.00,,FEW027,0.00,VWS V13.01,2013-06-03 04:22:00,
2013-06-03 00:27:00,45.2,39.4,30.01,NW,325,2.0,3.0,80,0.00,,FEW027,0.00,VWS V13.01,2013-06-03 04:27:00,
2013-06-03 00:32:00,45.0,39.5,30.01,NW,325,0.0,3.0,81,0.00,,FEW027,0.00,VWS V13.01,2013-06-03 04:32:00,
2013-06-03 00:37:00,44.7,39.2,30.01,SW,227,1.0,3.0,81,0.00,,FEW027,0.00,VWS V13.01,2013-06-03 04:37:00,
2013-06-03 00:42:00,44.4,39.3,30.00,NW,325,2.0,6.0,82,0.00,,FEW027,0.00,VWS V13.01,2013-06-03 04:42:00,
2013-06-03 00:47:00,44.2,39.1,30.01,NW,313,3.0,4.0,82,0.00,,FEW027,0.00,VWS V13.01,2013-06-03 04:47:00,
2013-06-03 00:52:00,44.0,38.9,30.00,NNW,333,1.0,3.0,82,0.00,,FEW027,0.00,VWS V13.01,2013-06-03 04:52:00,
2013-06-03 00:57:00,43.8,38.7,30.01,NNW,327,0.0,3.0,82,0.00,,FEW027,0.00,VWS V13.01,2013-06-03 04:57:00,
2013-06-03 01:02:00,43.7,38.6,30.01,WNW,284,0.0,3.0,82,0.00,,CLR,0.00,VWS V13.01,2013-06-03 05:02:00,
2013-06-03 01:07:00,43.5,38.4,30.01,NW,320,0.0,3.0,82,0.00,,CLR,0.00,VWS V13.01,2013-06-03 05:07:00,
2013-06-03 01:12:00,43.3,38.5,30.01,NW,320,1.0,3.0,83,0.00,,CLR,0.00,VWS V13.01,2013-06-03 05:12:00,
2013-06-03 01:17:00,43.1,38.3,30.02,NW,320,0.0,2.0,83,0.00,,CLR,0.00,VWS V13.01,2013-06-03 05:17:00,
2013-06-03 01:22:00,43.0,38.2,30.02,NW,320,0.0,1.0,83,0.00,,CLR,0.00,VWS V13.01,2013-06-03 05:22:00,
2013-06-03 01:27:00,42.8,38.3,30.01,NW,320,0.0,1.0,84,0.00,,CLR,0.00,VWS V13.01,2013-06-03 05:27:00,
2013-06-03 01:32:00,42.7,38.2,30.01,NW,320,0.0,1.0,84,0.00,,CLR,0.00,VWS V13.01,2013-06-03 05:32:00,
2013-06-03 01:37:00,42.6,38.1,30.02,NW,310,2.0,3.0,84,0.00,,CLR,0.00,VWS V13.01,2013-06-03 05:37:00,
2013-06-03 01:42:00,42.6,38.1,30.02,NW,310,1.0,3.0,84,0.00,,CLR,0.00,VWS V13.01,2013-06-03 05:42:00,
2013-06-03 01:47:00,42.5,38.0,30.02,NW,310,1.0,2.0,84,0.00,,CLR,0.00,VWS V13.01,2013-06-03 05:47:00,
2013-06-03 01:52:00,42.4,38.2,30.02,NW,310,0.0,1.0,85,0.00,,CLR,0.00,VWS V13.01,2013-06-03 05:52:00,
2013-06-03 01:58:00,42.3,38.1,30.02,WNW,284,1.0,3.0,85,0.00,,CLR,0.00,VWS V13.01,2013-06-03 05:58:00,
2013-06-03 02:03:00,42.2,38.0,30.02,WNW,284,1.0,2.0,85,0.00,,CLR,0.00,VWS V13.01,2013-06-03 06:03:00,
2013-06-03 02:08:00,42.2,38.0,30.02,WNW,284,0.0,2.0,85,0.00,,CLR,0.00,VWS V13.01,2013-06-03 06:08:00,
2013-06-03 02:13:00,42.0,37.8,30.02,WNW,284,1.0,1.0,85,0.00,,CLR,0.00,VWS V13.01,2013-06-03 06:13:00,
2013-06-03 02:18:00,41.8,37.9,30.02,WNW,285,0.0,2.0,86,0.00,,CLR,0.00,VWS V13.01,2013-06-03 06:18:00,
2013-06-03 02:23:00,41.6,38.0,30.02,WNW,285,0.0,1.0,87,0.00,,CLR,0.00,VWS V13.01,2013-06-03 06:23:00,
2013-06-03 02:28:00,41.4,38.1,30.02,WNW,285,0.0,2.0,88,0.00,,CLR,0.00,VWS V13.01,2013-06-03 06:28:00,
2013-06-03 02:33:00,41.3,38.3,30.02,WNW,285,2.0,3.0,89,0.00,,CLR,0.00,VWS V13.01,2013-06-03 06:33:00,
2013-06-03 02:38:00,41.1,38.1,30.02,WNW,286,0.0,4.0,89,0.00,,CLR,0.00,VWS V13.01,2013-06-03 06:38:00,
2013-06-03 02:43:00,41.1,38.1,30.02,WNW,291,1.0,3.0,89,0.00,,CLR,0.00,VWS V13.01,2013-06-03 06:43:00,
2013-06-03 02:48:00,41.2,38.2,30.02,WNW,298,4.0,4.0,89,0.00,,CLR,0.00,VWS V13.01,2013-06-03 06:48:00,
2013-06-03 02:53:00,41.2,38.2,30.02,WNW,301,3.0,4.0,89,0.00,,CLR,0.00,VWS V13.01,2013-06-03 06:53:00,
2013-06-03 02:58:00,41.2,38.2,30.02,WNW,296,2.0,4.0,89,0.00,,CLR,0.00,VWS V13.01,2013-06-03 06:58:00,
2013-06-03 03:03:00,41.1,38.1,30.02,WNW,285,3.0,4.0,89,0.00,,CLR,0.00,VWS V13.01,2013-06-03 07:03:00,
2013-06-03 03:08:00,41.0,38.0,30.02,WNW,288,2.0,4.0,89,0.00,,CLR,0.00,VWS V13.01,2013-06-03 07:08:00,
2013-06-03 03:13:00,41.0,38.0,30.02,WNW,297,2.0,5.0,89,0.00,,CLR,0.00,VWS V13.01,2013-06-03 07:13:00,
2013-06-03 03:18:00,40.9,37.9,30.02,WSW,252,2.0,5.0,89,0.00,,CLR,0.00,VWS V13.01,2013-06-03 07:18:00,
2013-06-03 03:23:00,40.8,37.8,30.02,West,265,1.0,4.0,89,0.00,,CLR,0.00,VWS V13.01,2013-06-03 07:23:00,
2013-06-03 03:28:00,40.7,38.0,30.02,WNW,286,2.0,4.0,90,0.00,,CLR,0.00,VWS V13.01,2013-06-03 07:28:00,
2013-06-03 03:33:00,40.6,37.9,30.02,WNW,286,0.0,2.0,90,0.00,,CLR,0.00,VWS V13.01,2013-06-03 07:33:00,
2013-06-03 03:38:00,40.5,37.8,30.02,WNW,298,1.0,4.0,90,0.00,,CLR,0.00,VWS V13.01,2013-06-03 07:38:00,
2013-06-03 03:43:00,40.3,37.6,30.02,WNW,298,0.0,2.0,90,0.00,,CLR,0.00,VWS V13.01,2013-06-03 07:43:00,
2013-06-03 03:48:00,40.2,37.5,30.02,WNW,298,0.0,1.0,90,0.00,,CLR,0.00,VWS V13.01,2013-06-03 07:48:00,
2013-06-03 03:53:00,40.0,37.3,30.02,WNW,296,0.0,2.0,90,0.00,,CLR,0.00,VWS V13.01,2013-06-03 07:53:00,
2013-06-03 03:58:00,39.9,37.2,30.02,WNW,294,2.0,2.0,90,0.00,,CLR,0.00,VWS V13.01,2013-06-03 07:58:00,
2013-06-03 04:03:00,39.8,37.1,30.02,WNW,293,1.0,2.0,90,0.00,,CLR,0.00,VWS V13.01,2013-06-03 08:03:00,
2013-06-03 04:08:00,39.6,37.2,30.02,WNW,298,0.0,2.0,91,0.00,,CLR,0.00,VWS V13.01,2013-06-03 08:08:00,
2013-06-03 04:13:00,39.5,37.1,30.02,WNW,298,0.0,1.0,91,0.00,,CLR,0.00,VWS V13.01,2013-06-03 08:13:00,
2013-06-03 04:18:00,39.3,36.9,30.02,WNW,298,0.0,2.0,91,0.00,,CLR,0.00,VWS V13.01,2013-06-03 08:18:00,
2013-06-03 04:23:00,39.2,36.8,30.02,WNW,298,0.0,1.0,91,0.00,,CLR,0.00,VWS V13.01,2013-06-03 08:23:00,
2013-06-03 04:28:00,39.1,36.7,30.02,WNW,298,0.0,1.0,91,0.00,,CLR,0.00,VWS V13.01,2013-06-03 08:28:00,
2013-06-03 04:33:00,38.9,36.5,30.02,WNW,298,0.0,2.0,91,0.00,,CLR,0.00,VWS V13.01,2013-06-03 08:33:00,
2013-06-03 04:38:00,38.8,36.7,30.03,WNW,298,0.0,1.0,92,0.00,,CLR,0.00,VWS V13.01,2013-06-03 08:38:00,
2013-06-03 04:43:00,38.7,36.6,30.03,WNW,298,0.0,1.0,92,0.00,,CLR,0.00,VWS V13.01,2013-06-03 08:43:00,
2013-06-03 04:48:00,38.6,36.5,30.02,WNW,298,0.0,1.0,92,0.00,,CLR,0.00,VWS V13.01,2013-06-03 08:48:00,
2013-06-03 04:53:00,38.6,36.5,30.03,WNW,298,0.0,1.0,92,0.00,,CLR,0.00,VWS V13.01,2013-06-03 08:53:00,
2013-06-03 04:58:00,38.5,36.4,30.03,WNW,298,1.0,1.0,92,0.00,,CLR,0.00,VWS V13.01,2013-06-03 08:58:00,
2013-06-03 05:03:00,38.5,36.4,30.03,WNW,298,0.0,2.0,92,0.00,,CLR,0.00,VWS V13.01,2013-06-03 09:03:00,
2013-06-03 05:08:00,38.4,36.3,30.03,WNW,288,1.0,3.0,92,0.00,,CLR,0.00,VWS V13.01,2013-06-03 09:08:00,
2013-06-03 05:13:00,38.4,36.6,30.03,West,275,1.0,3.0,93,0.00,,CLR,0.00,VWS V13.01,2013-06-03 09:13:00,
2013-06-03 05:18:00,38.4,36.6,30.03,West,275,0.0,4.0,93,0.00,,CLR,0.00,VWS V13.01,2013-06-03 09:18:00,
2013-06-03 05:23:00,38.4,36.6,30.03,West,275,0.0,1.0,93,0.00,,CLR,0.00,VWS V13.01,2013-06-03 09:23:00,
2013-06-03 05:28:00,38.4,36.6,30.03,West,275,0.0,1.0,93,0.00,,CLR,0.00,VWS V13.01,2013-06-03 09:28:00,
2013-06-03 05:33:00,38.4,36.6,30.03,West,275,0.0,2.0,93,0.00,,CLR,0.00,VWS V13.01,2013-06-03 09:33:00,
2013-06-03 05:38:00,38.3,36.5,30.04,West,279,2.0,3.0,93,0.00,,CLR,0.00,VWS V13.01,2013-06-03 09:38:00,
2013-06-03 05:43:00,38.4,36.6,30.04,West,281,1.0,3.0,93,0.00,,CLR,0.00,VWS V13.01,2013-06-03 09:43:00,
2013-06-03 05:48:00,38.5,36.7,30.03,WNW,287,0.0,4.0,93,0.00,,CLR,0.00,VWS V13.01,2013-06-03 09:48:00,
2013-06-03 05:53:00,38.5,36.7,30.04,WNW,289,2.0,3.0,93,0.00,,CLR,0.00,VWS V13.01,2013-06-03 09:53:00,
2013-06-03 05:58:00,38.5,36.7,30.04,WSW,258,0.0,4.0,93,0.00,,CLR,0.00,VWS V13.01,2013-06-03 09:58:00,
2013-06-03 06:03:00,38.5,36.7,30.04,WNW,296,3.0,4.0,93,0.00,,CLR,0.00,VWS V13.01,2013-06-03 10:03:00,
2013-06-03 06:08:00,38.6,36.8,30.05,West,277,4.0,6.0,93,0.00,,CLR,0.00,VWS V13.01,2013-06-03 10:08:00,
2013-06-03 06:13:00,38.6,36.5,30.05,West,279,1.0,4.0,92,0.00,,CLR,0.00,VWS V13.01,2013-06-03 10:13:00,
2013-06-03 06:18:00,38.7,36.6,30.05,WNW,284,3.0,5.0,92,0.00,,CLR,0.00,VWS V13.01,2013-06-03 10:18:00,
2013-06-03 06:23:00,38.8,36.7,30.05,WNW,289,3.0,5.0,92,0.00,,CLR,0.00,VWS V13.01,2013-06-03 10:23:00,
2013-06-03 06:28:00,38.9,36.8,30.05,WNW,288,5.0,6.0,92,0.00,,CLR,0.00,VWS V13.01,2013-06-03 10:28:00,
2013-06-03 06:34:00,39.0,36.9,30.05,NW,309,2.0,6.0,92,0.00,,CLR,0.00,VWS V13.01,2013-06-03 10:34:00,
2013-06-03 06:39:00,39.2,37.1,30.06,NW,304,3.0,6.0,92,0.00,,CLR,0.00,VWS V13.01,2013-06-03 10:39:00,
2013-06-03 06:44:00,39.4,37.0,30.06,WNW,288,1.0,7.0,91,0.00,,CLR,0.00,VWS V13.01,2013-06-03 10:44:00,
2013-06-03 06:49:00,39.5,37.1,30.06,WNW,288,4.0,6.0,91,0.00,,CLR,0.00,VWS V13.01,2013-06-03 10:49:00,
2013-06-03 06:54:00,39.7,37.3,30.06,West,265,2.0,8.0,91,0.00,,CLR,0.00,VWS V13.01,2013-06-03 10:54:00,
2013-06-03 06:59:00,39.7,37.0,30.06,West,279,3.0,6.0,90,0.00,,CLR,0.00,VWS V13.01,2013-06-03 10:59:00,
2013-06-03 07:04:00,39.8,37.1,30.06,WNW,294,3.0,8.0,90,0.00,,CLR,0.00,VWS V13.01,2013-06-03 11:04:00,
2013-06-03 07:09:00,39.8,37.1,30.06,West,272,3.0,7.0,90,0.00,,CLR,0.00,VWS V13.01,2013-06-03 11:09:00,
2013-06-03 07:14:00,39.9,37.5,30.06,NW,307,3.0,5.0,91,0.00,,CLR,0.00,VWS V13.01,2013-06-03 11:14:00,
2013-06-03 07:19:00,40.1,37.7,30.06,NW,309,2.0,6.0,91,0.00,,CLR,0.00,VWS V13.01,2013-06-03 11:19:00,
2013-06-03 07:24:00,40.3,37.6,30.06,NW,306,6.0,7.0,90,0.00,,CLR,0.00,VWS V13.01,2013-06-03 11:24:00,
2013-06-03 07:29:00,40.6,37.9,30.06,WNW,298,2.0,8.0,90,0.00,,CLR,0.00,VWS V13.01,2013-06-03 11:29:00,
2013-06-03 07:34:00,40.7,37.7,30.07,NW,313,5.0,7.0,89,0.00,,CLR,0.00,VWS V13.01,2013-06-03 11:34:00,
2013-06-03 07:39:00,40.9,37.6,30.07,NW,311,3.0,7.0,88,0.00,,CLR,0.00,VWS V13.01,2013-06-03 11:39:00,
2013-06-03 07:44:00,41.3,38.0,30.07,WNW,300,4.0,7.0,88,0.00,,CLR,0.00,VWS V13.01,2013-06-03 11:44:00,
2013-06-03 07:49:00,41.8,38.5,30.07,NW,325,3.0,6.0,88,0.00,,CLR,0.00,VWS V13.01,2013-06-03 11:49:00,
2013-06-03 07:54:00,42.4,38.8,30.07,WNW,282,5.0,6.0,87,0.00,,CLR,0.00,VWS V13.01,2013-06-03 11:54:00,
2013-06-03 07:59:00,42.8,38.6,30.07,WNW,301,3.0,6.0,85,0.00,,CLR,0.00,VWS V13.01,2013-06-03 11:59:00,
2013-06-03 08:04:00,43.0,38.5,30.07,NW,306,2.0,7.0,84,0.00,,CLR,0.00,VWS V13.01,2013-06-03 12:04:00,
2013-06-03 08:09:00,43.4,38.9,30.07,NW,325,5.0,7.0,84,0.00,,CLR,0.00,VWS V13.01,2013-06-03 12:09:00,
2013-06-03 08:14:00,43.7,38.6,30.07,WNW,298,3.0,7.0,82,0.00,,CLR,0.00,VWS V13.01,2013-06-03 12:14:00,
2013-06-03 08:19:00,44.1,39.0,30.07,WSW,254,5.0,7.0,82,0.00,,CLR,0.00,VWS V13.01,2013-06-03 12:19:00,
2013-06-03 08:24:00,44.6,39.1,30.07,West,277,6.0,6.0,81,0.00,,CLR,0.00,VWS V13.01,2013-06-03 12:24:00,
2013-06-03 08:29:00,44.9,39.1,30.07,WSW,250,5.0,9.0,80,0.00,,CLR,0.00,VWS V13.01,2013-06-03 12:29:00,
2013-06-03 08:34:00,45.2,39.4,30.07,WSW,250,5.0,8.0,80,0.00,,CLR,0.00,VWS V13.01,2013-06-03 12:34:00,
2013-06-03 08:39:00,45.5,39.4,30.07,WSW,249,6.0,7.0,79,0.00,,CLR,0.00,VWS V13.01,2013-06-03 12:39:00,
2013-06-03 08:44:00,46.0,39.5,30.07,West,280,2.0,8.0,78,0.00,,CLR,0.00,VWS V13.01,2013-06-03 12:44:00,
2013-06-03 08:49:00,46.2,39.1,30.07,WNW,302,2.0,7.0,76,0.00,,CLR,0.00,VWS V13.01,2013-06-03 12:49:00,
2013-06-03 08:54:00,46.6,39.1,30.07,WNW,298,3.0,8.0,75,0.00,,CLR,0.00,VWS V13.01,2013-06-03 12:54:00,
2013-06-03 08:59:00,46.8,39.3,30.07,WSW,254,3.0,6.0,75,0.00,,CLR,0.00,VWS V13.01,2013-06-03 12:59:00,
2013-06-03 09:04:00,47.1,39.2,30.07,West,260,2.0,7.0,74,0.00,,CLR,0.00,VWS V13.01,2013-06-03 13:04:00,
2013-06-03 09:09:00,47.4,39.5,30.07,WSW,237,6.0,8.0,74,0.00,,CLR,0.00,VWS V13.01,2013-06-03 13:09:00,
2013-06-03 09:14:00,47.7,39.8,30.07,West,259,5.0,8.0,74,0.00,,CLR,0.00,VWS V13.01,2013-06-03 13:14:00,
2013-06-03 09:19:00,48.1,40.9,30.07,WSW,241,6.0,8.0,76,0.00,,CLR,0.00,VWS V13.01,2013-06-03 13:19:00,
2013-06-03 09:24:00,48.1,41.6,30.07,WSW,251,3.0,9.0,78,0.00,,CLR,0.00,VWS V13.01,2013-06-03 13:24:00,
2013-06-03 09:29:00,48.4,41.9,30.07,WSW,245,7.0,8.0,78,0.00,,CLR,0.00,VWS V13.01,2013-06-03 13:29:00,
2013-06-03 09:34:00,48.7,40.8,30.07,WSW,237,5.0,8.0,74,0.00,,CLR,0.00,VWS V13.01,2013-06-03 13:34:00,
2013-06-03 09:39:00,48.7,41.8,30.07,WSW,242,8.0,8.0,77,0.00,,CLR,0.00,VWS V13.01,2013-06-03 13:39:00,
2013-06-03 09:44:00,48.8,42.3,30.07,SW,233,8.0,9.0,78,0.00,,CLR,0.00,VWS V13.01,2013-06-03 13:44:00,
2013-06-03 09:49:00,49.4,41.5,30.07,WSW,257,4.0,12.0,74,0.00,,CLR,0.00,VWS V13.01,2013-06-03 13:49:00,
2013-06-03 09:54:00,49.5,41.2,30.07,SW,234,8.0,8.0,73,0.00,,CLR,0.00,VWS V13.01,2013-06-03 13:54:00,
2013-06-03 09:59:00,49.9,40.9,30.07,WSW,240,8.0,11.0,71,0.00,,CLR,0.00,VWS V13.01,2013-06-03 13:59:00,
2013-06-03 10:04:00,50.4,39.9,30.07,NW,312,5.0,10.0,67,0.00,,CLR,0.00,VWS V13.01,2013-06-03 14:04:00,
2013-06-03 10:09:00,50.9,41.5,30.06,WNW,291,7.0,14.0,70,0.00,,CLR,0.00,VWS V13.01,2013-06-03 14:09:00,
2013-06-03 10:14:00,51.0,40.8,30.06,WSW,240,7.0,12.0,68,0.00,,CLR,0.00,VWS V13.01,2013-06-03 14:14:00,
2013-06-03 10:19:00,51.4,40.4,30.06,WSW,250,7.0,14.0,66,0.00,,CLR,0.00,VWS V13.01,2013-06-03 14:19:00,
2013-06-03 10:24:00,51.5,40.5,30.06,WSW,253,9.0,10.0,66,0.00,,CLR,0.00,VWS V13.01,2013-06-03 14:24:00,
2013-06-03 10:29:00,51.9,42.1,30.06,West,259,8.0,14.0,69,0.00,,CLR,0.00,VWS V13.01,2013-06-03 14:29:00,
2013-06-03 10:34:00,52.0,41.0,30.06,WSW,246,15.0,17.0,66,0.00,,CLR,0.00,VWS V13.01,2013-06-03 14:34:00,
2013-06-03 10:40:00,52.1,40.7,30.05,WSW,237,16.0,16.0,65,0.00,,CLR,0.00,VWS V13.01,2013-06-03 14:40:00,
2013-06-03 10:45:00,52.6,41.6,30.05,WSW,242,8.0,18.0,66,0.00,,CLR,0.00,VWS V13.01,2013-06-03 14:45:00,
2013-06-03 10:50:00,52.7,41.3,30.05,WSW,249,10.0,14.0,65,0.00,,CLR,0.00,VWS V13.01,2013-06-03 14:50:00,
2013-06-03 10:55:00,53.0,42.0,30.05,WNW,288,6.0,12.0,66,0.00,,CLR,0.00,VWS V13.01,2013-06-03 14:55:00,
2013-06-03 11:00:00,53.5,41.2,30.05,West,264,5.0,14.0,63,0.00,,CLR,0.00,VWS V13.01,2013-06-03 15:00:00,
2013-06-03 11:05:00,53.8,42.3,30.05,West,259,6.0,14.0,65,0.00,,FEW038,0.00,VWS V13.01,2013-06-03 15:05:00,
2013-06-03 11:10:00,54.5,42.2,30.05,NNW,339,3.0,12.0,63,0.00,,FEW038,0.00,VWS V13.01,2013-06-03 15:10:00,
2013-06-03 11:15:00,54.7,43.6,30.05,WSW,244,12.0,13.0,66,0.00,,FEW038,0.00,VWS V13.01,2013-06-03 15:15:00,
2013-06-03 11:20:00,54.1,42.6,30.05,WSW,257,13.0,16.0,65,0.00,,FEW038,0.00,VWS V13.01,2013-06-03 15:20:00,
2013-06-03 11:25:00,54.0,42.5,30.05,WSW,246,9.0,14.0,65,0.00,,FEW038,0.00,VWS V13.01,2013-06-03 15:25:00,
2013-06-03 11:30:00,54.6,42.3,30.05,WSW,246,13.0,14.0,63,0.00,,FEW038,0.00,VWS V13.01,2013-06-03 15:30:00,
2013-06-03 11:35:00,55.0,43.1,30.05,NW,321,1.0,16.0,64,0.00,,FEW038,0.00,VWS V13.01,2013-06-03 15:35:00,
2013-06-03 11:40:00,56.3,43.5,30.05,NW,315,6.0,11.0,62,0.00,,FEW038,0.00,VWS V13.01,2013-06-03 15:40:00,
2013-06-03 11:45:00,57.3,41.3,30.05,NW,322,6.0,13.0,55,0.00,,FEW038,0.00,VWS V13.01,2013-06-03 15:45:00,
2013-06-03 11:50:00,57.3,41.3,30.05,West,260,13.0,16.0,55,0.00,,FEW038,0.00,VWS V13.01,2013-06-03 15:50:00,
2013-06-03 11:55:00,57.5,42.8,30.04,WSW,256,6.0,15.0,58,0.00,,FEW038,0.00,VWS V13.01,2013-06-03 15:55:00,
2013-06-03 12:00:00,58.9,43.2,30.04,NW,313,2.0,10.0,56,0.00,,FEW038,0.00,VWS V13.01,2013-06-03 16:00:00,
2013-06-03 12:05:00,58.9,42.3,30.05,WNW,285,4.0,9.0,54,0.00,,BKN048,0.00,VWS V13.01,2013-06-03 16:05:00,
2013-06-03 12:10:00,58.0,43.3,30.05,WSW,254,7.0,13.0,58,0.00,,BKN048,0.00,VWS V13.01,2013-06-03 16:10:00,
2013-06-03 12:15:00,58.1,41.1,30.04,West,268,5.0,12.0,53,0.00,,BKN048,0.00,VWS V13.01,2013-06-03 16:15:00,
2013-06-03 12:20:00,59.0,42.4,30.04,WSW,248,5.0,14.0,54,0.00,,BKN048,0.00,VWS V13.01,2013-06-03 16:20:00,
2013-06-03 12:25:00,59.3,42.7,30.04,NNW,334,3.0,16.0,54,0.00,,BKN048,0.00,VWS V13.01,2013-06-03 16:25:00,
2013-06-03 12:30:00,59.9,42.2,30.03,WNW,300,7.0,12.0,52,0.00,,BKN048,0.00,VWS V13.01,2013-06-03 16:30:00,
2013-06-03 12:35:00,60.2,42.0,30.03,WNW,285,5.0,11.0,51,0.00,,BKN048,0.00,VWS V13.01,2013-06-03 16:35:00,
2013-06-03 12:40:00,59.1,43.0,30.03,West,261,11.0,14.0,55,0.00,,BKN048,0.00,VWS V13.01,2013-06-03 16:40:00,
2013-06-03 12:45:00,59.8,42.7,30.03,West,259,8.0,13.0,53,0.00,,BKN048,0.00,VWS V13.01,2013-06-03 16:45:00,
2013-06-03 12:50:00,60.7,42.0,30.03,NW,304,4.0,9.0,50,0.00,,BKN048,0.00,VWS V13.01,2013-06-03 16:50:00,
2013-06-03 12:55:00,60.7,43.0,30.03,SSE,163,3.0,15.0,52,0.00,,BKN048,0.00,VWS V13.01,2013-06-03 16:55:00,
2013-06-03 13:00:00,61.9,43.1,30.03,NW,311,3.0,8.0,50,0.00,,BKN048,0.00,VWS V13.01,2013-06-03 17:00:00,
2013-06-03 13:05:00,62.6,42.7,30.03,WNW,301,5.0,13.0,48,0.00,,BKN055,0.00,VWS V13.01,2013-06-03 17:05:00,
2013-06-03 13:10:00,61.9,41.5,30.03,WNW,290,8.0,13.0,47,0.00,,BKN055,0.00,VWS V13.01,2013-06-03 17:10:00,
2013-06-03 13:15:00,61.6,42.3,30.03,WNW,300,3.0,13.0,49,0.00,,BKN055,0.00,VWS V13.01,2013-06-03 17:15:00,
2013-06-03 13:20:00,61.3,41.5,30.02,West,279,11.0,11.0,48,0.00,,BKN055,0.00,VWS V13.01,2013-06-03 17:20:00,
2013-06-03 13:25:00,61.5,41.1,30.02,West,259,11.0,18.0,47,0.00,,BKN055,0.00,VWS V13.01,2013-06-03 17:25:00,
2013-06-03 13:30:00,61.2,41.9,30.02,WSW,251,14.0,15.0,49,0.00,,BKN055,0.00,VWS V13.01,2013-06-03 17:30:00,
2013-06-03 13:35:00,62.1,43.3,30.02,NNW,338,3.0,13.0,50,0.00,,BKN055,0.00,VWS V13.01,2013-06-03 17:35:00,
2013-06-03 13:40:00,63.0,42.5,30.02,NW,321,6.0,11.0,47,0.00,,BKN055,0.00,VWS V13.01,2013-06-03 17:40:00,
2013-06-03 13:45:00,63.2,42.1,30.02,WNW,291,11.0,14.0,46,0.00,,BKN055,0.00,VWS V13.01,2013-06-03 17:45:00,
2013-06-03 13:50:00,62.9,40.7,30.02,West,261,7.0,16.0,44,0.00,,BKN055,0.00,VWS V13.01,2013-06-03 17:50:00,
2013-06-03 13:55:00,63.6,43.0,30.02,WSW,239,3.0,13.0,47,0.00,,BKN055,0.00,VWS V13.01,2013-06-03 17:55:00,
2013-06-03 14:00:00,62.7,40.5,30.02,West,262,11.0,20.0,44,0.00,,BKN055,0.00,VWS V13.01,2013-06-03 18:00:00,
2013-06-03 14:05:00,62.0,42.6,30.02,WSW,242,9.0,14.0,49,0.00,,SCT055,0.00,VWS V13.01,2013-06-03 18:05:00,
2013-06-03 14:10:00,63.1,40.9,30.01,WNW,286,10.0,14.0,44,0.00,,SCT055,0.00,VWS V13.01,2013-06-03 18:10:00,
2013-06-03 14:15:00,63.7,42.5,30.01,NNW,327,8.0,16.0,46,0.00,,SCT055,0.00,VWS V13.01,2013-06-03 18:15:00,
2013-06-03 14:20:00,64.4,42.0,30.01,WSW,252,13.0,19.0,44,0.00,,SCT055,0.00,VWS V13.01,2013-06-03 18:20:00,
2013-06-03 14:25:00,64.1,39.9,30.00,WSW,248,12.0,22.0,41,0.00,,SCT055,0.00,VWS V13.01,2013-06-03 18:25:00,
2013-06-03 14:30:00,64.8,41.2,30.01,NW,323,6.0,15.0,42,0.00,,SCT055,0.00,VWS V13.01,2013-06-03 18:30:00,
2013-06-03 14:36:00,65.2,39.6,30.00,WNW,296,5.0,13.0,39,0.00,,SCT055,0.00,VWS V13.01,2013-06-03 18:36:00,
2013-06-03 14:41:00,64.2,41.3,30.00,WNW,296,4.0,18.0,43,0.00,,SCT055,0.00,VWS V13.01,2013-06-03 18:41:00,
2013-06-03 14:46:00,65.1,40.8,30.00,NNW,339,8.0,15.0,41,0.00,,SCT055,0.00,VWS V13.01,2013-06-03 18:46:00,
2013-06-03 14:51:00,65.3,39.1,30.00,West,263,6.0,15.0,38,0.00,,SCT055,0.00,VWS V13.01,2013-06-03 18:51:00,
2013-06-03 14:56:00,65.6,39.3,30.00,WNW,285,11.0,14.0,38,0.00,,SCT055,0.00,VWS V13.01,2013-06-03 18:56:00,
2013-06-03 15:01:00,65.1,40.8,30.00,SW,229,9.0,18.0,41,0.00,,SCT055,0.00,VWS V13.01,2013-06-03 19:01:00,
2013-06-03 15:06:00,64.8,40.6,30.00,WNW,290,4.0,13.0,41,0.00,,BKN055,0.00,VWS V13.01,2013-06-03 19:06:00,
2013-06-03 15:11:00,65.7,40.1,30.00,NW,312,8.0,13.0,39,0.00,,BKN055,0.00,VWS V13.01,2013-06-03 19:11:00,
2013-06-03 15:16:00,66.3,40.6,30.00,NNW,329,7.0,16.0,39,0.00,,BKN055,0.00,VWS V13.01,2013-06-03 19:16:00,
2013-06-03 15:21:00,66.7,41.0,29.99,West,273,5.0,11.0,39,0.00,,BKN055,0.00,VWS V13.01,2013-06-03 19:21:00,
2013-06-03 15:26:00,67.4,42.9,29.99,NW,323,3.0,13.0,41,0.00,,BKN055,0.00,VWS V13.01,2013-06-03 19:26:00,
2013-06-03 15:31:00,67.1,40.7,29.99,NW,314,8.0,17.0,38,0.00,,BKN055,0.00,VWS V13.01,2013-06-03 19:31:00,
2013-06-03 15:36:00,66.1,39.8,29.99,WSW,252,5.0,14.0,38,0.00,,BKN055,0.00,VWS V13.01,2013-06-03 19:36:00,
2013-06-03 15:41:00,66.7,41.0,29.99,WNW,282,10.0,11.0,39,0.00,,BKN055,0.00,VWS V13.01,2013-06-03 19:41:00,
2013-06-03 15:46:00,66.8,44.8,29.99,NNW,344,3.0,10.0,45,0.00,,BKN055,0.00,VWS V13.01,2013-06-03 19:46:00,
2013-06-03 15:51:00,67.0,40.6,29.99,West,269,5.0,21.0,38,0.00,,BKN055,0.00,VWS V13.01,2013-06-03 19:51:00,
2013-06-03 15:56:00,66.1,41.1,29.99,WNW,302,9.0,14.0,40,0.00,,BKN055,0.00,VWS V13.01,2013-06-03 19:56:00,
2013-06-03 16:01:00,65.8,39.5,29.98,NW,319,12.0,12.0,38,0.00,,BKN055,0.00,VWS V13.01,2013-06-03 20:01:00,
2013-06-03 16:06:00,66.8,40.4,29.98,WNW,292,7.0,15.0,38,0.00,,SCT055,0.00,VWS V13.01,2013-06-03 20:06:00,
2013-06-03 16:11:00,66.3,39.3,29.98,WSW,256,10.0,15.0,37,0.00,,SCT055,0.00,VWS V13.01,2013-06-03 20:11:00,
2013-06-03 16:16:00,66.3,41.3,29.98,WSW,248,6.0,25.0,40,0.00,,SCT055,0.00,VWS V13.01,2013-06-03 20:16:00,
2013-06-03 16:21:00,66.4,40.7,29.98,WNW,292,11.0,17.0,39,0.00,,SCT055,0.00,VWS V13.01,2013-06-03 20:21:00,
2013-06-03 16:26:00,67.5,42.3,29.98,NW,319,6.0,11.0,40,0.00,,SCT055,0.00,VWS V13.01,2013-06-03 20:26:00,
2013-06-03 16:31:00,67.0,40.6,29.99,WNW,294,6.0,13.0,38,0.00,,SCT055,0.00,VWS V13.01,2013-06-03 20:31:00,
2013-06-03 16:36:00,67.5,42.3,29.98,North,355,2.0,11.0,40,0.00,,SCT055,0.00,VWS V13.01,2013-06-03 20:36:00,
2013-06-03 16:41:00,68.4,41.1,29.98,NNW,330,3.0,13.0,37,0.00,,SCT055,0.00,VWS V13.01,2013-06-03 20:41:00,
2013-06-03 16:46:00,68.7,43.4,29.99,NW,325,5.0,9.0,40,0.00,,SCT055,0.00,VWS V13.01,2013-06-03 20:46:00,
2013-06-03 16:51:00,69.4,43.4,29.98,WNW,299,5.0,7.0,39,0.00,,SCT055,0.00,VWS V13.01,2013-06-03 20:51:00,
2013-06-03 16:56:00,68.9,40.2,29.98,NW,323,4.0,11.0,35,0.00,,SCT055,0.00,VWS V13.01,2013-06-03 20:56:00,
2013-06-03 17:01:00,69.2,41.8,29.98,West,265,14.0,14.0,37,0.00,,SCT055,0.00,VWS V13.01,2013-06-03 21:01:00,
2013-06-03 17:07:00,68.3,41.7,29.98,NNW,330,2.0,14.0,38,0.00,,SCT055,0.00,VWS V13.01,2013-06-03 21:07:00,
2013-06-03 17:12:00,68.5,41.9,29.98,NW,320,4.0,12.0,38,0.00,,SCT055,0.00,VWS V13.01,2013-06-03 21:12:00,
2013-06-03 17:17:00,68.9,41.6,29.98,NW,321,7.0,9.0,37,0.00,,SCT055,0.00,VWS V13.01,2013-06-03 21:17:00,
2013-06-03 17:22:00,68.2,41.0,29.98,West,280,7.0,14.0,37,0.00,,SCT055,0.00,VWS V13.01,2013-06-03 21:22:00,
2013-06-03 17:27:00,67.7,41.9,29.98,NW,323,4.0,8.0,39,0.00,,SCT055,0.00,VWS V13.01,2013-06-03 21:27:00,
2013-06-03 17:32:00,68.7,42.1,29.98,NW,316,3.0,8.0,38,0.00,,SCT055,0.00,VWS V13.01,2013-06-03 21:32:00,
2013-06-03 17:37:00,68.8,41.5,29.99,WNW,302,7.0,10.0,37,0.00,,SCT055,0.00,VWS V13.01,2013-06-03 21:37:00,
2013-06-03 17:42:00,68.5,39.8,29.98,NW,309,7.0,12.0,35,0.00,,SCT055,0.00,VWS V13.01,2013-06-03 21:42:00,
2013-06-03 17:47:00,68.0,40.8,29.99,NW,306,5.0,9.0,37,0.00,,SCT055,0.00,VWS V13.01,2013-06-03 21:47:00,
2013-06-03 17:52:00,68.0,40.8,29.98,NW,321,5.0,9.0,37,0.00,,SCT055,0.00,VWS V13.01,2013-06-03 21:52:00,
2013-06-03 17:57:00,67.5,39.6,29.99,NW,319,7.0,10.0,36,0.00,,SCT055,0.00,VWS V13.01,2013-06-03 21:57:00,
2013-06-03 18:02:00,67.0,38.5,29.99,NW,315,6.0,13.0,35,0.00,,SCT055,0.00,VWS V13.01,2013-06-03 22:02:00,
2013-06-03 18:07:00,66.6,40.2,29.98,WNW,299,2.0,14.0,38,0.00,,CLR,0.00,VWS V13.01,2013-06-03 22:07:00,
2013-06-03 18:12:00,67.0,45.6,29.99,East,92,10.0,14.0,46,0.00,,CLR,0.00,VWS V13.01,2013-06-03 22:12:00,
2013-06-03 18:17:00,61.7,43.4,29.99,ENE,73,3.0,17.0,51,0.00,,CLR,0.00,VWS V13.01,2013-06-03 22:17:00,
2013-06-03 18:22:00,59.8,44.1,29.99,East,98,11.0,13.0,56,0.00,,CLR,0.00,VWS V13.01,2013-06-03 22:22:00,
2013-06-03 18:27:00,58.6,43.4,30.00,East,101,7.0,13.0,57,0.00,,CLR,0.00,VWS V13.01,2013-06-03 22:27:00,
2013-06-03 18:32:00,57.9,42.8,30.00,East,91,6.0,11.0,57,0.00,,CLR,0.00,VWS V13.01,2013-06-03 22:32:00,
2013-06-03 18:37:00,57.4,44.1,29.99,ESE,104,8.0,15.0,61,0.00,,CLR,0.00,VWS V13.01,2013-06-03 22:37:00,
2013-06-03 18:42:00,57.1,43.8,30.00,NE,51,5.0,13.0,61,0.00,,CLR,0.00,VWS V13.01,2013-06-03 22:42:00,
2013-06-03 18:47:00,57.0,43.7,30.00,East,84,3.0,10.0,61,0.00,,CLR,0.00,VWS V13.01,2013-06-03 22:47:00,
2013-06-03 18:52:00,57.0,44.1,30.00,ENE,76,3.0,8.0,62,0.00,,CLR,0.00,VWS V13.01,2013-06-03 22:52:00,
2013-06-03 18:57:00,56.8,43.1,30.00,East,86,2.0,8.0,60,0.00,,CLR,0.00,VWS V13.01,2013-06-03 22:57:00,
2013-06-03 19:02:00,56.7,43.8,30.00,ENE,66,3.0,9.0,62,0.00,,CLR,0.00,VWS V13.01,2013-06-03 23:02:00,
2013-06-03 19:07:00,56.2,43.8,30.01,ENE,78,4.0,14.0,63,0.00,,CLR,0.00,VWS V13.01,2013-06-03 23:07:00,
2013-06-03 19:12:00,55.5,43.9,30.01,ESE,107,4.0,11.0,65,0.00,,CLR,0.00,VWS V13.01,2013-06-03 23:12:00,
2013-06-03 19:17:00,55.3,45.3,30.02,NE,53,3.0,11.0,69,0.00,,CLR,0.00,VWS V13.01,2013-06-03 23:17:00,
2013-06-03 19:22:00,55.0,43.9,30.02,NE,56,4.0,10.0,66,0.00,,CLR,0.00,VWS V13.01,2013-06-03 23:22:00,
2013-06-03 19:27:00,54.6,44.3,30.02,NE,53,2.0,10.0,68,0.00,,CLR,0.00,VWS V13.01,2013-06-03 23:27:00,
2013-06-03 19:32:00,54.3,44.0,30.02,NNE,30,3.0,10.0,68,0.00,,CLR,0.00,VWS V13.01,2013-06-03 23:32:00,
2013-06-03 19:37:00,54.1,43.8,30.02,ESE,104,2.0,7.0,68,0.00,,CLR,0.00,VWS V13.01,2013-06-03 23:37:00,
2013-06-03 19:42:00,53.9,44.3,30.03,East,86,2.0,7.0,70,0.00,,CLR,0.00,VWS V13.01,2013-06-03 23:42:00,
2013-06-03 19:47:00,53.5,44.7,30.03,East,86,3.0,10.0,72,0.00,,CLR,0.00,VWS V13.01,2013-06-03 23:47:00,
2013-06-03 19:52:00,53.2,44.0,30.04,East,81,0.0,9.0,71,0.00,,CLR,0.00,VWS V13.01,2013-06-03 23:52:00,
2013-06-03 19:57:00,52.9,44.1,30.04,East,94,1.0,5.0,72,0.00,,CLR,0.00,VWS V13.01,2013-06-03 23:57:00,
2013-06-03 20:02:00,52.5,43.8,30.04,ESE,110,5.0,7.0,72,0.00,,CLR,0.00,VWS V13.01,2013-06-04 00:02:00,
2013-06-03 20:07:00,52.2,43.8,30.04,ESE,119,2.0,8.0,73,0.00,,CLR,0.00,VWS V13.01,2013-06-04 00:07:00,
2013-06-03 20:12:00,52.0,44.0,30.05,East,82,1.0,5.0,74,0.00,,CLR,0.00,VWS V13.01,2013-06-04 00:12:00,
2013-06-03 20:17:00,51.9,43.9,30.05,ENE,61,3.0,5.0,74,0.00,,CLR,0.00,VWS V13.01,2013-06-04 00:17:00,
2013-06-03 20:22:00,51.7,44.0,30.05,ESE,110,1.0,5.0,75,0.00,,CLR,0.00,VWS V13.01,2013-06-04 00:22:00,
2013-06-03 20:27:00,51.5,44.2,30.05,ENE,69,0.0,5.0,76,0.00,,CLR,0.00,VWS V13.01,2013-06-04 00:27:00,
2013-06-03 20:32:00,51.3,44.0,30.05,NE,49,3.0,4.0,76,0.00,,CLR,0.00,VWS V13.01,2013-06-04 00:32:00,
2013-06-03 20:37:00,51.1,44.2,30.05,NE,42,2.0,5.0,77,0.00,,CLR,0.00,VWS V13.01,2013-06-04 00:37:00,
2013-06-03 20:42:00,50.9,44.3,30.05,NE,51,0.0,3.0,78,0.00,,CLR,0.00,VWS V13.01,2013-06-04 00:42:00,
2013-06-03 20:47:00,50.8,43.9,30.05,East,79,0.0,4.0,77,0.00,,CLR,0.00,VWS V13.01,2013-06-04 00:47:00,
2013-06-03 20:52:00,50.7,43.8,30.05,NE,44,0.0,3.0,77,0.00,,CLR,0.00,VWS V13.01,2013-06-04 00:52:00,
2013-06-03 20:57:00,50.5,43.6,30.05,NE,55,0.0,3.0,77,0.00,,CLR,0.00,VWS V13.01,2013-06-04 00:57:00,
2013-06-03 21:02:00,50.4,43.8,30.05,NE,55,0.0,2.0,78,0.00,,CLR,0.00,VWS V13.01,2013-06-04 01:02:00,
2013-06-03 21:08:00,50.3,44.0,30.05,NE,55,0.0,0.0,79,0.00,,CLR,0.00,VWS V13.01,2013-06-04 01:08:00,
2013-06-03 21:13:00,50.1,43.8,30.05,NE,55,0.0,1.0,79,0.00,,CLR,0.00,VWS V13.01,2013-06-04 01:13:00,
2013-06-03 21:18:00,50.0,43.8,30.05,NE,55,0.0,2.0,79,0.00,,CLR,0.00,VWS V13.01,2013-06-04 01:18:00,
2013-06-03 21:23:00,49.9,44.0,30.05,NE,55,0.0,1.0,80,0.00,,CLR,0.00,VWS V13.01,2013-06-04 01:23:00,
2013-06-03 21:28:00,49.8,44.2,30.05,NE,55,2.0,3.0,81,0.00,,CLR,0.00,VWS V13.01,2013-06-04 01:28:00,
2013-06-03 21:33:00,49.7,44.1,30.05,ENE,65,2.0,3.0,81,0.00,,CLR,0.00,VWS V13.01,2013-06-04 01:33:00,
2013-06-03 21:38:00,49.7,44.4,30.05,NE,52,0.0,2.0,82,0.00,,CLR,0.00,VWS V13.01,2013-06-04 01:38:00,
2013-06-03 21:43:00,49.6,44.3,30.06,NE,52,0.0,1.0,82,0.00,,CLR,0.00,VWS V13.01,2013-06-04 01:43:00,
2013-06-03 21:48:00,49.5,44.2,30.06,NE,52,0.0,1.0,82,0.00,,CLR,0.00,VWS V13.01,2013-06-04 01:48:00,
2013-06-03 21:53:00,49.5,44.2,30.06,NE,52,0.0,0.0,82,0.00,,CLR,0.00,VWS V13.01,2013-06-04 01:53:00,
2013-06-03 21:58:00,49.4,44.5,30.07,NE,52,0.0,1.0,83,0.00,,CLR,0.00,VWS V13.01,2013-06-04 01:58:00,
2013-06-03 22:03:00,49.3,44.7,30.07,NE,52,0.0,1.0,84,0.00,,CLR,0.00,VWS V13.01,2013-06-04 02:03:00,
2013-06-03 22:08:00,49.2,44.6,30.07,NE,52,1.0,2.0,84,0.00,,CLR,0.00,VWS V13.01,2013-06-04 02:08:00,
2013-06-03 22:13:00,49.0,44.7,30.07,NE,51,0.0,1.0,85,0.00,,CLR,0.00,VWS V13.01,2013-06-04 02:13:00,
2013-06-03 22:18:00,48.8,44.5,30.08,NE,51,0.0,1.0,85,0.00,,CLR,0.00,VWS V13.01,2013-06-04 02:18:00,
2013-06-03 22:23:00,48.7,44.7,30.08,NE,51,1.0,1.0,86,0.00,,CLR,0.00,VWS V13.01,2013-06-04 02:23:00,
2013-06-03 22:28:00,48.5,44.5,30.08,NE,51,1.0,2.0,86,0.00,,CLR,0.00,VWS V13.01,2013-06-04 02:28:00,
2013-06-03 22:33:00,48.3,44.6,30.08,NE,51,0.0,2.0,87,0.00,,CLR,0.00,VWS V13.01,2013-06-04 02:33:00,
2013-06-03 22:38:00,48.0,44.3,30.08,NE,51,1.0,2.0,87,0.00,,CLR,0.00,VWS V13.01,2013-06-04 02:38:00,
2013-06-03 22:43:00,47.8,44.4,30.08,NE,51,1.0,2.0,88,0.00,,CLR,0.00,VWS V13.01,2013-06-04 02:43:00,
2013-06-03 22:48:00,47.5,44.1,30.08,NE,51,1.0,3.0,88,0.00,,CLR,0.00,VWS V13.01,2013-06-04 02:48:00,
2013-06-03 22:53:00,47.2,43.8,30.08,NE,51,2.0,2.0,88,0.00,,CLR,0.00,VWS V13.01,2013-06-04 02:53:00,
2013-06-03 22:58:00,47.0,43.9,30.08,NE,51,2.0,2.0,89,0.00,,CLR,0.00,VWS V13.01,2013-06-04 02:58:00,
2013-06-03 23:03:00,46.8,43.7,30.09,NE,51,2.0,3.0,89,0.00,,CLR,0.00,VWS V13.01,2013-06-04 03:03:00,
2013-06-03 23:08:00,46.6,43.5,30.09,NE,51,0.0,3.0,89,0.00,,CLR,0.00,VWS V13.01,2013-06-04 03:08:00,
2013-06-03 23:13:00,46.5,43.7,30.09,NE,51,0.0,0.0,90,0.00,,CLR,0.00,VWS V13.01,2013-06-04 03:13:00,
2013-06-03 23:18:00,46.4,43.6,30.10,NE,51,0.0,2.0,90,0.00,,CLR,0.00,VWS V13.01,2013-06-04 03:18:00,
2013-06-03 23:23:00,46.3,43.5,30.10,North,355,0.0,3.0,90,0.00,,CLR,0.00,VWS V13.01,2013-06-04 03:23:00,
2013-06-03 23:28:00,46.1,43.3,30.10,North,355,1.0,2.0,90,0.00,,CLR,0.00,VWS V13.01,2013-06-04 03:28:00,
2013-06-03 23:33:00,46.0,43.2,30.10,North,355,2.0,2.0,90,0.00,,CLR,0.00,VWS V13.01,2013-06-04 03:33:00,
2013-06-03 23:38:00,45.8,43.3,30.10,North,355,2.0,2.0,91,0.00,,CLR,0.00,VWS V13.01,2013-06-04 03:38:00,
2013-06-03 23:43:00,45.7,43.2,30.10,NNW,348,1.0,3.0,91,0.00,,CLR,0.00,VWS V13.01,2013-06-04 03:43:00,
2013-06-03 23:48:00,45.6,43.1,30.10,NNW,348,2.0,2.0,91,0.00,,CLR,0.00,VWS V13.01,2013-06-04 03:48:00,
2013-06-03 23:53:00,45.6,43.1,30.10,NNW,348,0.0,2.0,91,0.00,,CLR,0.00,VWS V13.01,2013-06-04 03:53:00,
2013-06-03 23:58:00,45.5,43.3,30.11,NNW,348,0.0,2.0,92,0.00,,CLR,0.00,VWS V13.01,2013-06-04 03:58:00,